Home > Weather > Battambang > Past weeks

Flag for Cambodia Past Weather in Battambang, Cambodia — Yesterday and Last 2 Weeks

Now
88 °F

Sprinkles. Broken clouds.


Feels Like: 100 °F
Forecast: 78 / 93 °F
Wind: 5 mph from East

Location: Siemreap

Current Time: Jul 23, 2016 at 6:23:35 PM

Latest Report: Jul 23, 2016 at 5:30 PM


Visibility: 4 mi

Pressure: 29.68 "Hg

Humidity: 70%

Dew Point: 77 °F

Location of BattambangLocation

Past Weather in Battambang — Graph

°F

Battambang Temperature Yesterday

Maximum temperature yesterday: 91 °F (at 2:30 PM)
Minimum temperature yesterday: 81 °F (at 12:00 AM)
Average temperature yesterday: 85 °F

High & Low Weather Summary for the Past Weeks

 TemperatureHumidityPressure
High93 °F (Jul 17, 1:30 PM)100% (Jul 8, 5:30 PM)29.86 "Hg (Jul 8, 5:30 PM)
Low75 °F (Jul 11, 3:00 PM)52% (Jul 19, 4:00 PM)29.59 "Hg (Jul 10, 4:30 PM)
Average84 °F84%29.72 "Hg
* Reported Jul 8 5:00 PM — Jul 23 5:00 PM, Battambang, Weather by CustomWeather, © 2016

Note: Actual official high and low records may vary slightly from our data, if they occured in-between our weather recording intervals... More about our weather records

Advertising

Battambang Weather History for the Previous 24 Hours

Scroll right to see more
 ConditionsComfort  
Time TempWeatherWind HumidityBarometerVisibility
5:00 PM
Sat, Jul 23
88 °FSprinkles. Scattered clouds.13 mph70%29.68 "Hg4 mi
4:30 PM91 °FScattered clouds.6 mph56%29.68 "HgN/A
4:00 PM91 °FScattered clouds.2 mph56%29.68 "HgN/A
3:30 PM91 °FScattered clouds.2 mph59%29.71 "HgN/A
3:00 PM91 °FScattered clouds.1 mph59%29.71 "HgN/A
2:30 PM90 °FScattered clouds.5 mph59%29.71 "HgN/A
2:00 PM91 °FScattered clouds.2 mph59%29.74 "HgN/A
1:30 PM90 °FScattered clouds.2 mph63%29.74 "HgN/A
1:00 PM90 °FScattered clouds.3 mph63%29.77 "HgN/A
12:30 PM90 °FScattered clouds.2 mph67%29.77 "HgN/A
12:00 PM88 °FScattered clouds.3 mph70%29.80 "HgN/A
11:30 AM88 °FScattered clouds.5 mph70%29.80 "HgN/A
11:00 AM86 °FScattered clouds.5 mph70%29.83 "HgN/A
10:30 AM86 °FScattered clouds.5 mph75%29.83 "HgN/A
10:00 AM84 °FScattered clouds.2 mph79%29.83 "HgN/A
9:30 AM84 °FBroken clouds.2 mph79%29.86 "HgN/A
9:00 AM82 °FBroken clouds.2 mph89%29.83 "HgN/A
8:00 AM81 °FBroken clouds.3 mph100%29.83 "Hg6 mi
7:30 AM79 °FBroken clouds.5 mph100%29.80 "Hg6 mi
7:00 AM79 °FBroken clouds.3 mph100%29.80 "Hg6 mi
2:30 AM79 °FPassing clouds.3 mph100%29.77 "Hg4 mi
2:00 AM81 °FPassing clouds.5 mph94%29.80 "Hg4 mi
1:30 AM81 °FPassing clouds.3 mph94%29.80 "Hg4 mi
12:30 AM81 °FPassing clouds.No wind100%29.80 "Hg6 mi
11:00 PM
Fri, Jul 22
81 °FPassing clouds.No wind100%29.80 "Hg6 mi
10:30 PM81 °FPassing clouds.No wind100%29.80 "Hg6 mi
10:00 PM82 °FPassing clouds.3 mph89%29.80 "Hg6 mi
9:30 PM82 °FPassing clouds.2 mph89%29.80 "Hg6 mi
9:00 PM82 °FPassing clouds.6 mph89%29.77 "Hg6 mi
8:30 PM82 °FPassing clouds.2 mph94%29.77 "Hg6 mi
8:00 PM86 °FPassing clouds.2 mph79%29.74 "Hg6 mi
7:30 PM86 °FPassing clouds.2 mph75%29.74 "Hg6 mi
7:00 PM86 °FPassing clouds.2 mph75%29.74 "Hg6 mi
6:30 PM86 °FScattered clouds.3 mph75%29.74 "Hg6 mi
6:00 PM88 °FScattered clouds.2 mph66%29.71 "Hg6 mi
Weather by CustomWeather, © 2016

See weather overviewHow to use our weather pages